Winfield, KS

3:25 PM CDT on April 26, 2018 (GMT -0500)
Strother

Weather History for KWLD - April, 2013

Change the Weather History Date:

Thursday, April 18, 2013

  Actual Average Record
Temperature  
Mean Temperature 38 °F -  
Max Temperature 44 °F 68 °F 84 °F (2003)
Min Temperature 33 °F 45 °F 30 °F (2014)
Degree Days  
Heating Degree Days 26    
Moisture  
Dew Point 34 °F    
Average Humidity 80    
Maximum Humidity 100    
Minimum Humidity 60    
Precipitation  
Precipitation 0.13 in - - ()
Sea Level Pressure  
Sea Level Pressure 29.87 in    
Wind  
Wind Speed 19 mph (NNW)    
Max Wind Speed 26 mph    
Max Gust Speed 38 mph    
Visibility 9 miles    
Events Rain , Thunderstorm    
Averages and records for this station are not official NWS values.
T = Trace of Precipitation, MM = Missing Value Source: NWS Daily Summary

Daily Weather History Graph

Daily Weather History Graph

Search for Another Location

Airport or City:

Astronomy

Apr. 18, 2013 Rise Set
Actual Time 6:49 AM CDT 8:06 PM CDT
Civil Twilight 6:22 AM CDT 8:33 PM CDT
Nautical Twilight 5:49 AM CDT 9:05 PM CDT
Astronomical Twilight 5:16 AM CDT 9:39 PM CDT
Moon 1:03 PM CDT (4/18) 2:19 AM CDT (4/18)
Length of Visible Light 14h 10m
Length of Day
13h 16m
First Quarter, 52% of the Moon is Illuminated
Apr 18
First Quarter
Apr 25
Full
May 2
Last Quarter
May 9
New
May 17
First Quarter

Hourly Weather History & Observations

Time (CDT) Temp. Windchill Dew Point Humidity Pressure Visibility Wind Dir Wind Speed Gust Speed Precip Events Conditions
12:06 AM 44.6 °F 36.9 °F 42.8 °F 93% 29.67 in 10.0 mi North 18.4 mph 29.9 mph N/A Thunderstorm Overcast
12:54 AM 44.1 °F 36.8 °F 42.1 °F 93% 29.67 in 5.0 mi North 16.1 mph - 0.10 in Rain , Thunderstorm Rain
1:05 AM 44.6 °F 36.9 °F 42.8 °F 93% 29.65 in 7.0 mi North 18.4 mph 24.2 mph 0.02 in Rain Light Rain
1:12 AM 42.8 °F 34.8 °F 42.8 °F 100% 29.65 in 9.0 mi North 17.3 mph - 0.02 in Rain , Thunderstorm Light Rain
1:27 AM 44.6 °F 36.9 °F 42.8 °F 93% 29.65 in 10.0 mi North 18.4 mph 24.2 mph 0.02 in   Overcast
1:54 AM 43.0 °F 34.8 °F 42.1 °F 97% 29.67 in 6.0 mi NNW 18.4 mph 26.5 mph 0.02 in Rain Light Rain
2:30 AM 42.8 °F 33.5 °F 41.0 °F 93% 29.67 in 7.0 mi NNW 23.0 mph 29.9 mph 0.01 in Rain Light Rain
2:54 AM 42.1 °F 32.6 °F 39.9 °F 92% 29.68 in 5.0 mi NNW 23.0 mph 29.9 mph 0.01 in Rain Light Rain
3:54 AM 39.9 °F 30.8 °F 37.9 °F 93% 29.71 in 8.0 mi NNW 18.4 mph 33.4 mph 0.00 in   Overcast
4:13 AM 39.2 °F 28.0 °F 37.4 °F 93% 29.71 in 9.0 mi NNW 26.5 mph 34.5 mph N/A   Overcast
4:37 AM 39.2 °F 29.8 °F 37.4 °F 93% 29.75 in 9.0 mi NNW 18.4 mph 28.8 mph N/A   Overcast
4:54 AM 39.9 °F 30.8 °F 37.9 °F 93% 29.75 in 10.0 mi NNW 18.4 mph 25.3 mph N/A   Overcast
5:26 AM 39.2 °F 31.6 °F 37.4 °F 93% 29.79 in 10.0 mi NNW 12.7 mph - N/A   Overcast
5:54 AM 39.0 °F 28.0 °F 35.1 °F 86% 29.73 in 10.0 mi NNW 25.3 mph 38.0 mph N/A   Overcast
6:54 AM 37.0 °F 26.7 °F 34.0 °F 89% 29.83 in 10.0 mi NNW 19.6 mph 32.2 mph N/A   Overcast
7:54 AM 37.0 °F 26.7 °F 33.1 °F 86% 29.86 in 10.0 mi NNW 19.6 mph 28.8 mph N/A   Overcast
8:54 AM 36.0 °F 23.9 °F 32.0 °F 86% 29.91 in 10.0 mi NNW 25.3 mph 32.2 mph N/A   Overcast
9:54 AM 37.0 °F 26.2 °F 32.0 °F 82% 29.95 in 10.0 mi NW 21.9 mph 27.6 mph N/A   Overcast
10:54 AM 37.9 °F 27.9 °F 30.9 °F 76% 29.96 in 10.0 mi NNW 19.6 mph 28.8 mph N/A   Overcast
11:54 AM 41.0 °F 31.1 °F 32.0 °F 70% 29.96 in 10.0 mi NNW 23.0 mph 29.9 mph N/A   Overcast
12:54 PM 43.0 °F 33.3 °F 32.0 °F 65% 29.96 in 10.0 mi NW 25.3 mph 33.4 mph N/A   Overcast
1:54 PM 41.0 °F 30.7 °F 30.0 °F 65% 29.99 in 10.0 mi NW 25.3 mph 31.1 mph N/A   Overcast
2:13 PM 42.8 °F 34.0 °F 30.2 °F 61% 29.97 in 10.0 mi NW 20.7 mph 28.8 mph N/A   Overcast
2:54 PM 42.1 °F 33.3 °F 30.9 °F 65% 30.00 in 10.0 mi NW 19.6 mph 26.5 mph N/A   Overcast
3:54 PM 42.1 °F 33.1 °F 30.0 °F 62% 30.00 in 10.0 mi NW 20.7 mph 28.8 mph N/A   Overcast
4:54 PM 41.0 °F 32.2 °F 28.9 °F 62% 30.02 in 10.0 mi NW 18.4 mph 28.8 mph N/A   Overcast
5:54 PM 39.9 °F 30.2 °F 28.0 °F 63% 30.04 in 10.0 mi NNW 20.7 mph - N/A   Overcast
6:54 PM 39.0 °F 29.3 °F 27.0 °F 62% 30.06 in 10.0 mi NW 19.6 mph 29.9 mph N/A   Overcast
7:54 PM 39.0 °F 31.0 °F 26.1 °F 60% 30.08 in 10.0 mi NW 13.8 mph - N/A   Overcast
8:54 PM 39.0 °F 31.0 °F 27.0 °F 62% 30.09 in 10.0 mi NW 13.8 mph - N/A   Overcast
9:54 PM 37.9 °F 30.9 °F 26.1 °F 62% 30.12 in 10.0 mi WNW 10.4 mph - N/A   Mostly Cloudy
10:54 PM 33.1 °F 26.1 °F 26.1 °F 75% 30.12 in 10.0 mi WNW 8.1 mph - N/A   Clear
11:54 PM 33.1 °F 26.9 °F 26.1 °F 75% 30.11 in 10.0 mi WNW 6.9 mph - N/A   Clear